Klawock, AK

9:34 PM AKDT on June 27, 2017 (GMT -0800)
Klawock

Weather History for PAKW - December, 2012

Change the Weather History Date:

Wednesday, December 5, 2012

  Actual Average Record
Temperature  
Mean Temperature 34 °F -  
Max Temperature 35 °F 39 °F 48 °F (2000)
Min Temperature 33 °F 32 °F 16 °F (2007)
Degree Days  
Heating Degree Days 31    
Moisture  
Dew Point 32 °F    
Average Humidity 93    
Maximum Humidity 100    
Minimum Humidity 87    
Precipitation  
Precipitation 0.30 in - - ()
Sea Level Pressure  
Sea Level Pressure 29.66 in    
Wind  
Wind Speed 2 mph (ESE)    
Max Wind Speed 10 mph    
Max Gust Speed -    
Visibility 6 miles    
Events Rain , Snow    
Averages and records for this station are not official NWS values.
T = Trace of Precipitation, MM = Missing Value Source: NWS Daily Summary

Daily Weather History Graph

Daily Weather History Graph

Search for Another Location

Airport or City:

Trip Planner

Search our weather history database for the weather conditions in past years. The results will help you decide how hot, cold, wet, or windy it might be!

Date:

Astronomy

Dec. 05, 2012 Rise Set
Actual Time 8:03 AM AKST 3:22 PM AKST
Civil Twilight 7:18 AM AKST 4:07 PM AKST
Nautical Twilight 6:30 AM AKST 4:55 PM AKST
Astronomical Twilight 5:45 AM AKST 5:40 PM AKST
Moon 11:17 PM AKST (12/5) 11:39 AM AKST (12/5)
Length of Visible Light 8h 49m
Length of Day
7h 18m
Waning Gibbous, 58% of the Moon is Illuminated
Dec 5
Waning Gibbous
Dec 6
Last Quarter
Dec 12
New
Dec 19
First Quarter
Dec 28
Full

Hourly Weather History & Observations

Time (AKST) Temp. Windchill Dew Point Humidity Pressure Visibility Wind Dir Wind Speed Gust Speed Precip Events Conditions
12:53 AM 34.0 °F - 32.0 °F 92% 29.45 in 10.0 mi Calm Calm - 0.00 in   Overcast
1:24 AM 33.8 °F 29.6 °F 32.0 °F 93% 29.45 in 10.0 mi NNE 4.6 mph - 0.00 in   Overcast
1:53 AM 33.1 °F - 32.0 °F 96% 29.47 in 10.0 mi Calm Calm - 0.02 in   Overcast
3:10 AM 33.8 °F - 32.0 °F 93% 29.49 in 10.0 mi Calm Calm - 0.00 in   Overcast
3:53 AM 34.0 °F - 33.1 °F 96% 29.51 in 10.0 mi Calm Calm - 0.00 in   Overcast
5:53 AM 34.0 °F - 33.1 °F 96% 29.55 in 10.0 mi Calm Calm - 0.02 in   Mostly Cloudy
6:05 AM 33.8 °F 29.6 °F 32.0 °F 93% 29.55 in 7.0 mi NNE 4.6 mph - 0.00 in Snow Light Snow
6:19 AM 33.8 °F - 32.0 °F 93% 29.55 in 10.0 mi Calm Calm - 0.00 in   Overcast
6:53 AM 34.0 °F - 32.0 °F 92% 29.57 in 10.0 mi Calm Calm - 0.00 in   Overcast
7:08 AM 33.8 °F 30.8 °F 32.0 °F 93% 29.56 in 5.0 mi Variable 3.5 mph - 0.00 in Snow Light Snow
7:32 AM 35.6 °F - 32.0 °F 87% 29.56 in 10.0 mi Calm Calm - 0.00 in   Mostly Cloudy
7:53 AM 34.0 °F 31.0 °F 32.0 °F 92% 29.57 in 10.0 mi North 3.5 mph - 0.00 in   Mostly Cloudy
8:31 AM 35.6 °F - 32.0 °F 87% 29.59 in 10.0 mi Calm Calm - 0.00 in Rain Light Rain
8:53 AM 34.0 °F 29.8 °F 32.0 °F 92% 29.59 in 10.0 mi ENE 4.6 mph - 0.00 in Rain Light Rain
9:05 AM 33.8 °F - 33.8 °F 100% 29.60 in 10.0 mi Calm Calm - 0.00 in Rain Light Rain
9:16 AM 33.8 °F - 33.8 °F 100% 29.60 in 10.0 mi Calm Calm - 0.00 in   Overcast
9:29 AM 33.8 °F 30.8 °F 32.0 °F 93% 29.60 in 10.0 mi NNE 3.5 mph - 0.00 in   Overcast
9:42 AM 33.8 °F 30.8 °F 32.0 °F 93% 29.60 in 10.0 mi Variable 3.5 mph - 0.02 in   Overcast
9:53 AM 34.0 °F - 32.0 °F 92% 29.61 in 10.0 mi Calm Calm - 0.02 in   Overcast
10:05 AM 33.8 °F - 33.8 °F 100% 29.61 in 10.0 mi Calm Calm - 0.00 in Rain Light Rain
10:14 AM 35.6 °F - 33.8 °F 93% 29.61 in 9.0 mi Calm Calm - 0.01 in Rain Light Rain
10:38 AM 33.8 °F 29.6 °F 32.0 °F 93% 29.62 in 1.8 mi Variable 4.6 mph - 0.03 in Snow Light Snow
10:42 AM 33.8 °F 29.6 °F 32.0 °F 93% 29.62 in 0.8 mi Variable 4.6 mph - 0.03 in Snow Light Snow
10:53 AM 33.1 °F 30.0 °F 32.0 °F 96% 29.62 in 2.5 mi Variable 3.5 mph - 0.04 in Snow Light Snow
11:00 AM 33.8 °F 30.8 °F 32.0 °F 93% 29.62 in 9.0 mi SE 3.5 mph - 0.01 in   Overcast
11:27 AM 33.8 °F 29.6 °F 32.0 °F 93% 29.62 in 2.0 mi Variable 4.6 mph - 0.04 in Snow Light Snow
11:36 AM 33.8 °F 30.8 °F 32.0 °F 93% 29.62 in 1.8 mi South 3.5 mph - 0.05 in Snow Light Snow
11:53 AM 34.0 °F 29.8 °F 33.1 °F 96% 29.63 in 9.0 mi Variable 4.6 mph - 0.07 in Rain Light Rain
12:00 PM 35.6 °F 31.7 °F 33.8 °F 93% 29.62 in 10.0 mi Variable 4.6 mph - 0.00 in   Mostly Cloudy
12:44 PM 35.6 °F 30.7 °F 33.8 °F 93% 29.63 in 6.0 mi South 5.8 mph - 0.01 in Rain Rain
12:53 PM 35.1 °F 30.1 °F 32.0 °F 89% 29.64 in 2.5 mi SSW 5.8 mph - 0.03 in Snow Light Snow
1:02 PM 33.8 °F - 33.8 °F 100% 29.64 in 1.2 mi Calm Calm - 0.02 in Snow Light Snow
1:07 PM 33.8 °F 30.8 °F 33.8 °F 100% 29.63 in 2.0 mi Variable 3.5 mph - 0.03 in Snow Light Snow
1:16 PM 35.6 °F 29.2 °F 33.8 °F 93% 29.63 in 9.0 mi SSE 8.1 mph - 0.03 in   Mostly Cloudy
1:53 PM 35.1 °F 30.1 °F 32.0 °F 89% 29.65 in 10.0 mi Variable 5.8 mph - 0.04 in   Partly Cloudy
2:20 PM 35.6 °F 31.7 °F 32.0 °F 87% 29.65 in 2.5 mi Variable 4.6 mph - 0.00 in Snow Light Snow
2:33 PM 33.8 °F - 32.0 °F 93% 29.65 in 7.0 mi Calm Calm - 0.01 in   Overcast
2:53 PM 33.1 °F - 30.9 °F 92% 29.65 in 10.0 mi Calm Calm - 0.01 in   Mostly Cloudy
3:48 PM 33.8 °F 29.6 °F 32.0 °F 93% 29.67 in 2.5 mi South 4.6 mph - 0.01 in Snow Light Snow
3:53 PM 34.0 °F 31.0 °F 32.0 °F 92% 29.68 in 4.0 mi Variable 3.5 mph - 0.01 in Snow Light Snow
4:44 PM 33.8 °F 25.8 °F 32.0 °F 93% 29.69 in 4.0 mi SSW 10.4 mph - 0.03 in Snow Light Snow
5:06 PM 33.8 °F 28.6 °F 32.0 °F 93% 29.70 in 4.0 mi SSE 5.8 mph - 0.01 in Snow Light Snow
5:29 PM 33.8 °F 27.7 °F 32.0 °F 93% 29.70 in 10.0 mi SSE 6.9 mph - 0.02 in   Overcast
5:53 PM 34.0 °F 31.0 °F 33.1 °F 96% 29.72 in 7.0 mi Variable 3.5 mph - 0.03 in Snow Light Snow
6:53 PM 33.1 °F 30.0 °F 30.9 °F 92% 29.73 in 10.0 mi NNW 3.5 mph - 0.00 in   Mostly Cloudy
7:53 PM 34.0 °F 26.6 °F 32.0 °F 92% 29.76 in 9.0 mi SSW 9.2 mph - 0.00 in Snow Light Snow
8:02 PM 33.8 °F 28.6 °F 30.2 °F 87% 29.76 in 1.8 mi Variable 5.8 mph - 0.01 in Snow Light Snow
8:10 PM 33.8 °F 30.8 °F 32.0 °F 93% 29.76 in 1.2 mi Variable 3.5 mph - 0.01 in Snow Light Snow
8:13 PM 33.8 °F 30.8 °F 32.0 °F 93% 29.76 in 2.0 mi Variable 3.5 mph - 0.01 in Snow Light Snow
8:25 PM 33.8 °F - 32.0 °F 93% 29.76 in 5.0 mi Calm Calm - 0.01 in Snow Light Snow
8:53 PM 33.1 °F 30.0 °F 32.0 °F 96% 29.77 in 5.0 mi South 3.5 mph - 0.01 in Snow Light Snow
8:58 PM 33.8 °F - 32.0 °F 93% 29.76 in 2.5 mi Calm Calm - 0.00 in Snow Light Snow
9:22 PM 33.8 °F 27.0 °F 32.0 °F 93% 29.76 in 4.0 mi NNE 8.1 mph - 0.00 in Snow Light Snow
9:29 PM 33.8 °F 29.6 °F 32.0 °F 93% 29.77 in 2.5 mi NNE 4.6 mph - 0.00 in Snow Light Snow
9:42 PM 33.8 °F - 32.0 °F 93% 29.77 in 4.0 mi Calm Calm - 0.00 in Snow Light Snow
9:46 PM 33.8 °F - 32.0 °F 93% 29.77 in 1.8 mi Calm Calm - 0.00 in Snow Light Snow
9:51 PM 33.8 °F - 32.0 °F 93% 29.77 in 0.8 mi Calm Calm - 0.00 in Snow Light Snow
9:53 PM 33.1 °F - 32.0 °F 96% 29.77 in 0.8 mi Calm Calm - 0.00 in Snow Light Snow
10:16 PM 33.8 °F - 32.0 °F 93% 29.77 in 1.0 mi Calm Calm - 0.00 in Snow Light Snow
10:36 PM 33.8 °F - 32.0 °F 93% 29.77 in 2.0 mi Calm Calm - 0.00 in Snow Light Snow
10:53 PM 33.1 °F - 32.0 °F 96% 29.78 in 2.0 mi Calm Calm - 0.00 in Snow Light Snow
10:57 PM 33.8 °F - 32.0 °F 93% 29.77 in 1.5 mi Calm Calm - 0.00 in Snow Light Snow
11:00 PM 33.8 °F - 32.0 °F 93% 29.77 in 1.0 mi Calm Calm - 0.00 in Snow Light Snow
11:11 PM 33.8 °F - 32.0 °F 93% 29.78 in 1.0 mi Calm Calm - 0.00 in Snow Light Snow
11:21 PM 33.8 °F - 32.0 °F 93% 29.78 in 1.5 mi Calm Calm - 0.00 in Snow Light Snow
11:28 PM 33.8 °F 30.8 °F 32.0 °F 93% 29.78 in 2.0 mi NNE 3.5 mph - 0.00 in Snow Light Snow
11:38 PM 33.8 °F - 32.0 °F 93% 29.78 in 1.5 mi Calm Calm - 0.00 in Snow Light Snow
11:49 PM 33.8 °F - 32.0 °F 93% 29.78 in 2.0 mi Calm Calm - 0.00 in Snow Light Snow
11:53 PM 33.1 °F - 32.0 °F 96% 29.78 in 2.5 mi Calm Calm - 0.00 in Snow Light Snow